Flag for U.S.A. Weather past 2 weeks in Lincoln, Nebraska, U.S.A.

Now
95 °F

Sunny.


Feels Like: 103 °F
Forecast: 72 / 95 °F
Wind: 8 mph from West

Location: Lincoln Municipal Airport

Current Time: Aug 2, 2015 at 5:36:41 PM

Latest Report: Aug 2, 2015 at 3:54 PM


Visibility: 10 mi

Pressure: 29.79 "Hg

Humidity: 46%

Dew point: 71 °F

Location of LincolnLocation

Historic Weather in Lincoln — Graph

°F

Lincoln temperature yesterday

Maximum temperature yesterday: 89 °F (at 2:54 PM)
Minimum temperature yesterday: 64 °F (at 1:54 AM)
Average temperature yesterday: 76 °F

Past Weeks' High & Low Weather Summary

 TemperatureHumidityPressure
High99 °F (Jul 24, 3:54 PM)97% (Jul 26, 4:54 AM)30.19 "Hg (Jul 26, 4:54 AM)
Low59 °F (Jul 21, 5:54 AM)24% (Jul 29, 12:54 PM)29.71 "Hg (Jul 28, 6:54 AM)
Average79 °F69%29.93 "Hg
* Reported Jul 18 3:54 PM — Aug 2 3:54 PM, Lincoln, Weather by CustomWeather, © 2015

Note: Actual official high and low records may vary slightly from our data, if they occured in-between our weather recording intervals... More about our weather records

Advertising

Lincoln weather history for previous 24 hours

 ConditionsComfort  
Time TempWeatherWind HumidityBarometerVisibility
3:54 PM
Sun, Aug 2
95 °FSunny.8 mph46%29.79 "Hg10 mi
2:54 PM95 °FSunny.8 mph46%29.80 "Hg10 mi
1:54 PM95 °FSunny.13 mph47%29.80 "Hg10 mi
12:54 PM93 °FSunny.15 mph49%29.81 "Hg10 mi
11:54 AM90 °FSunny.12 mph56%29.83 "Hg10 mi
10:54 AM87 °FSunny.13 mph61%29.83 "Hg10 mi
9:54 AM84 °FSunny.13 mph65%29.83 "Hg10 mi
8:54 AM80 °FSunny.12 mph71%29.85 "Hg10 mi
7:54 AM77 °FSunny.6 mph77%29.85 "Hg9 mi
6:54 AM72 °FClear.9 mph87%29.81 "Hg8 mi
5:54 AM72 °FClear.7 mph87%29.82 "Hg9 mi
4:54 AM73 °FClear.9 mph84%29.83 "Hg10 mi
3:54 AM74 °FClear.7 mph82%29.84 "Hg10 mi
2:54 AM73 °FClear.10 mph88%29.84 "Hg10 mi
1:54 AM73 °FClear.8 mph90%29.85 "Hg10 mi
12:54 AM72 °FClear.7 mph91%29.88 "Hg10 mi
11:54 PM
Sat, Aug 1
71 °FClear.No wind84%29.89 "Hg10 mi
10:54 PM77 °FClear.No wind74%29.89 "Hg10 mi
9:54 PM77 °FClear.5 mph62%29.88 "Hg10 mi
8:54 PM79 °FSunny.6 mph60%29.87 "Hg10 mi
7:54 PM82 °FSunny.5 mph55%29.87 "Hg10 mi
6:54 PM86 °FSunny.8 mph43%29.87 "Hg10 mi
5:54 PM87 °FSunny.8 mph39%29.90 "Hg10 mi
Weather by CustomWeather, © 2015

See weather overviewHow to use our weather pages